FW9083 Weather Reports


time (UTC)temp
C
wind
direction
speed
KPH
gust
KPH
rain 1hr
cm
rain 24hr
cm
rain mn
cm
humidity
%
barometer
mb
20260506124847 11 283 3.2 3.2 0.00 0.00 0.00 90 1024.1
20260506124343 11 283 3.2 4.8 0.00 0.00 0.00 90 1024.1
20260506123841 11 318 4.8 4.8 0.00 0.00 0.00 90 1024.0
20260506123339 11 305 1.6 1.6 0.00 0.00 0.00 90 1024.0
20260506122836 11 288 6.4 8.0 0.00 0.00 0.00 90 1023.9
20260506122333 11 262 4.8 4.8 0.00 0.00 0.00 90 1023.9
20260506121831 11 272 4.8 4.8 0.00 0.00 0.00 90 1023.8
20260506121328 11 287 3.2 4.8 0.00 0.00 0.00 90 1023.9
20260506120825 11 287 3.2 3.2 0.00 0.00 0.00 90 1023.8
20260506120323 11 291 3.2 3.2 0.00 0.00 0.00 90 1023.8
20260506115820 12 291 3.2 3.2 0.00 0.00 0.00 90 1023.8
20260506115318 12 272 4.8 4.8 0.00 0.00 0.00 90 1024.1
20260506114816 12 299 1.6 3.2 0.00 0.00 0.00 90 1024.0
20260506114314 12 302 4.8 4.8 0.00 0.00 0.00 90 1023.9
20260506113812 12 275 4.8 4.8 0.00 0.00 0.00 90 1023.8
20260506113309 12 279 3.2 3.2 0.00 0.00 0.00 90 1023.8
20260506112806 11 263 6.4 8.0 0.00 0.00 0.00 89 1023.8
20260506112305 12 306 4.8 4.8 0.00 0.00 0.00 89 1023.7
20260506111800 12 282 4.8 8.0 0.00 0.00 0.00 90 1023.5
20260506111258 12 316 1.6 1.6 0.00 0.00 0.00 90 1023.5
20260506110755 12 283 4.8 4.8 0.00 0.00 0.00 90 1023.5
20260506110252 12 276 4.8 4.8 0.00 0.00 0.00 90 1023.3
20260506105749 12 272 4.8 4.8 0.00 0.00 0.00 89 1023.4
20260506105246 12 304 3.2 3.2 0.00 0.00 0.00 89 1023.3
20260506104743 12 294 3.2 3.2 0.00 0.00 0.00 89 1023.2
20260506104241 12 313 1.6 3.2 0.00 0.00 0.00 89 1023.3
20260506103738 12 285 3.2 3.2 0.00 0.00 0.00 89 1023.2
20260506103235 12 321 1.6 1.6 0.00 0.00 0.00 89 1023.2
20260506102733 12 286 3.2 3.2 0.00 0.00 0.00 89 1023.3
20260506102231 12 298 3.2 3.2 0.00 0.00 0.00 89 1023.2
20260506101727 12 281 3.2 4.8 0.00 0.00 0.00 89 1023.0
20260506101224 12 263 4.8 4.8 0.00 0.00 0.00 89 1023.0
20260506100722 12 270 4.8 4.8 0.00 0.00 0.00 89 1023.0
20260506100220 12 279 4.8 4.8 0.00 0.00 0.00 90 1022.9
20260506095718 12 278 4.8 4.8 0.00 0.00 0.00 89 1022.8
20260506095215 12 310 3.2 3.2 0.00 0.00 0.00 89 1023.0
20260506094712 12 312 3.2 3.2 0.00 0.00 0.00 89 1023.1
20260506094210 12 270 4.8 4.8 0.00 0.00 0.00 89 1022.9
20260506093708 12 322 1.6 3.2 0.00 0.00 0.00 89 1023.0
20260506093205 12 268 4.8 4.8 0.00 0.00 0.00 89 1023.1
20260506092703 12 313 1.6 3.2 0.00 0.00 0.00 89 1023.0
20260506092200 12 278 4.8 4.8 0.00 0.00 0.00 89 1023.0
20260506091658 12 308 4.8 4.8 0.00 0.00 0.00 89 1023.0
20260506091155 12 269 4.8 4.8 0.00 0.00 0.00 89 1022.7
20260506090653 12 281 3.2 3.2 0.00 0.00 0.00 89 1023.0
20260506090149 12 318 1.6 1.6 0.00 0.00 0.00 89 1023.1
20260506085646 12 273 4.8 8.0 0.00 0.00 0.00 89 1022.8
20260506085142 12 302 3.2 3.2 0.00 0.00 0.00 89 1022.8
20260506084639 12 271 4.8 4.8 0.00 0.00 0.00 89 1023.1
20260506084136 12 282 4.8 4.8 0.00 0.00 0.00 89 1022.9
20260506083632 12 269 6.4 8.0 0.00 0.00 0.00 89 1023.1
20260506083130 12 270 8.0 9.7 0.00 0.00 0.00 89 1022.9
20260506082627 12 302 6.4 8.0 0.00 0.00 0.00 89 1023.1
20260506082122 12 320 4.8 4.8 0.00 0.00 0.00 89 1023.0
20260506081621 12 316 4.8 8.0 0.00 0.00 0.00 89 1023.1
20260506081118 12 297 6.4 8.0 0.00 0.00 0.00 89 1023.0
20260506080616 12 290 1.6 3.2 0.00 0.00 0.00 89 1023.2
20260506080112 12 273 6.4 9.7 0.00 0.00 0.00 88 1023.1
20260506073056 12 320 8.0 8.0 0.00 0.00 0.00 88 1022.5
20260506072552 12 275 4.8 4.8 0.00 0.00 0.00 88 1022.6
20260506072051 12 262 4.8 4.8 0.00 0.00 0.00 88 1022.6
20260506071548 12 303 4.8 4.8 0.00 0.00 0.00 88 1022.4
20260506071045 12 289 4.8 4.8 0.00 0.00 0.00 87 1022.5
20260506070542 12 302 3.2 3.2 0.00 0.00 0.00 87 1022.6
20260506062017 12 272 6.4 8.0 0.00 0.00 0.00 87 1022.2
20260506061512 12 279 6.4 8.0 0.00 0.00 0.00 87 1021.9
20260506061010 12 259 8.0 8.0 0.00 0.00 0.00 87 1021.8
20260506060508 12 283 4.8 4.8 0.00 0.00 0.00 87 1021.9
20260506050937 12 272 6.4 8.0 0.00 0.00 0.00 87 1021.8
20260506050435 12 315 4.8 4.8 0.00 0.00 0.00 87 1021.5
20260506044925 13 271 4.8 4.8 0.00 0.00 0.00 87 1021.6
20260506044424 13 251 6.4 8.0 0.00 0.00 0.00 86 1021.5
20260506043920 13 317 6.4 8.0 0.00 0.00 0.00 86 1021.5
20260506043417 13 313 4.8 8.0 0.00 0.00 0.00 86 1021.4
20260506042915 13 274 6.4 9.7 0.00 0.00 0.00 86 1021.4
20260506042414 13 303 4.8 4.8 0.00 0.00 0.00 86 1021.2
20260506041912 13 273 4.8 8.0 0.00 0.00 0.00 86 1021.3
20260506041409 13 271 3.2 3.2 0.00 0.00 0.00 86 1021.1
20260506040906 13 276 4.8 8.0 0.00 0.00 0.00 86 1021.0
20260506040404 13 256 11.3 11.3 0.00 0.00 0.00 86 1020.9
20260506035859 13 322 3.2 4.8 0.00 0.00 0.00 85 1020.7
20260506035357 13 313 8.0 9.7 0.00 0.00 0.00 85 1020.8
20260506034854 13 305 4.8 8.0 0.00 0.00 0.00 85 1020.9
20260506034351 13 298 6.4 9.7 0.00 0.00 0.00 85 1021.0
20260506033848 13 275 8.0 9.7 0.00 0.00 0.00 85 1020.4
20260506033345 13 307 8.0 11.3 0.00 0.00 0.00 85 1020.4
20260506032842 13 289 8.0 9.7 0.00 0.00 0.00 84 1020.6
20260506032339 13 277 8.0 9.7 0.00 0.00 0.00 84 1020.4
20260506031836 13 309 8.0 9.7 0.00 0.00 0.00 84 1020.2
20260506031333 13 303 4.8 4.8 0.00 0.00 0.00 84 1020.0
20260506030831 13 326 6.4 9.7 0.00 0.00 0.00 84 1020.4
20260506030329 13 309 8.0 11.3 0.00 0.00 0.00 84 1019.8
20260506025825 13 252 9.7 11.3 0.00 0.00 0.00 84 1019.9
20260506025321 13 302 9.7 11.3 0.00 0.00 0.00 83 1019.9
20260506024819 13 272 6.4 9.7 0.00 0.00 0.00 83 1020.1
20260506024315 13 308 8.0 9.7 0.00 0.00 0.00 83 1019.8
20260506023812 13 315 8.0 9.7 0.00 0.00 0.00 83 1019.8
20260506023309 13 305 9.7 12.9 0.00 0.00 0.00 83 1019.7
20260506022805 13 309 12.9 14.5 0.00 0.00 0.00 83 1019.8
20260506022305 13 323 4.8 8.0 0.00 0.00 0.00 83 1019.8
20260506021801 13 292 9.7 11.3 0.00 0.00 0.00 83 1019.7
20260506021258 13 340 8.0 8.0 0.00 0.00 0.00 83 1019.7
20260506020754 13 258 9.7 11.3 0.00 0.00 0.00 83 1019.5
20260506020253 13 319 8.0 9.7 0.00 0.00 0.00 83 1019.7
20260506015750 13 321 11.3 12.9 0.00 0.00 0.00 82 1019.7
20260506015247 13 299 11.3 12.9 0.00 0.00 0.00 82 1019.5
20260506014744 14 303 11.3 16.1 0.00 0.00 0.00 82 1019.3
20260506014240 14 295 8.0 11.3 0.00 0.00 0.00 82 1019.5
20260506013737 14 274 11.3 14.5 0.00 0.00 0.00 82 1019.6
20260506013235 14 337 8.0 9.7 0.00 0.00 0.00 81 1019.6
20260506012731 15 289 9.7 11.3 0.00 0.00 0.00 81 1019.3
20260506012228 15 306 8.0 12.9 0.00 0.00 0.00 81 1019.4
20260506011725 15 326 8.0 9.7 0.00 0.00 0.00 80 1019.3
20260506011221 15 305 8.0 9.7 0.00 0.00 0.00 80 1019.2
20260506010720 15 308 19.3 22.5 0.00 0.00 0.00 79 1019.2
20260506010217 15 303 16.1 20.9 0.00 0.00 0.00 77 1019.1
20260506005714 15 308 8.0 11.3 0.00 0.00 0.00 77 1019.3
20260506005211 16 307 16.1 22.5 0.00 0.00 0.00 76 1019.3
20260506004706 16 268 6.4 9.7 0.00 0.00 0.00 76 1019.1
20260506004204 16 312 14.5 17.7 0.00 0.00 0.00 74 1019.1
20260506003700 16 303 11.3 14.5 0.00 0.00 0.00 74 1019.1
20260506003157 16 322 11.3 14.5 0.00 0.00 0.00 74 1018.9
20260506002653 16 272 11.3 20.9 0.00 0.00 0.00 74 1019.1
20260506002149 16 298 12.9 16.1 0.00 0.00 0.00 73 1018.8
20260506001644 17 311 9.7 12.9 0.00 0.00 0.00 73 1018.9
20260506001142 17 285 12.9 17.7 0.00 0.00 0.00 72 1018.8
20260506000639 17 278 11.3 12.9 0.00 0.00 0.00 73 1018.7
20260506000136 17 269 16.1 17.7 0.00 0.00 0.00 71 1019.0
20260505235634 17 307 14.5 16.1 0.00 0.00 0.00 73 1018.9
20260505235131 17 241 14.5 22.5 0.00 0.00 0.00 72 1018.8
20260505234628 17 274 11.3 16.1 0.00 0.00 0.00 71 1019.0
20260505234125 18 241 19.3 22.5 0.00 0.00 0.00 69 1018.8
20260505233622 18 262 14.5 20.9 0.00 0.00 0.00 71 1018.7
20260505233120 18 263 17.7 20.9 0.00 0.00 0.00 70 1018.8
20260505232617 17 315 12.9 20.9 0.00 0.00 0.00 71 1018.8
20260505232115 18 280 11.3 14.5 0.00 0.00 0.00 70 1018.9
20260505231611 18 290 17.7 24.1 0.00 0.00 0.00 69 1018.8
20260505231110 18 335 9.7 11.3 0.00 0.00 0.00 70 1018.8
20260505230608 18 264 11.3 16.1 0.00 0.00 0.00 71 1018.5
20260505225600 18 277 19.3 22.5 0.00 0.00 0.00 69 1018.7
20260505225056 18 256 17.7 20.9 0.00 0.00 0.00 71 1018.7
20260505224553 18 267 25.7 27.4 0.00 0.00 0.00 71 1018.8
20260505224051 18 336 16.1 22.5 0.00 0.00 0.00 70 1018.9
20260505223548 18 296 16.1 20.9 0.00 0.00 0.00 72 1018.8
20260505223044 18 278 14.5 17.7 0.00 0.00 0.00 69 1018.9
20260505222540 18 282 19.3 20.9 0.00 0.00 0.00 69 1019.0
20260505222037 18 274 11.3 12.9 0.00 0.00 0.00 70 1019.0
20260505221534 18 269 12.9 14.5 0.00 0.00 0.00 72 1018.9
20260505221030 19 246 14.5 16.1 0.00 0.00 0.00 69 1019.1
20260505220528 19 267 14.5 17.7 0.00 0.00 0.00 69 1018.7
20260505220025 19 265 17.7 17.7 0.00 0.00 0.00 68 1018.9
20260505215523 18 343 8.0 11.3 0.00 0.00 0.00 69 1019.1
20260505215021 18 318 12.9 16.1 0.00 0.00 0.00 69 1018.9
20260505214519 19 256 9.7 12.9 0.00 0.00 0.00 70 1018.8
20260505214015 18 337 16.1 20.9 0.00 0.00 0.00 71 1018.9
20260505213513 18 262 16.1 17.7 0.00 0.00 0.00 71 1019.2
20260505213009 18 250 8.0 14.5 0.00 0.00 0.00 72 1019.0
20260505212506 18 310 9.7 11.3 0.00 0.00 0.00 71 1019.1
20260505212003 18 244 12.9 12.9 0.00 0.00 0.00 72 1019.0
20260505211500 18 272 11.3 12.9 0.00 0.00 0.00 69 1019.1
20260505210956 18 331 4.8 4.8 0.00 0.00 0.00 71 1019.0
20260505210453 18 262 8.0 9.7 0.00 0.00 0.00 68 1019.0
20260505205950 18 315 6.4 8.0 0.00 0.00 0.00 69 1019.1
20260505205449 18 3 4.8 4.8 0.00 0.00 0.00 68 1019.1
20260505204945 17 27 1.6 1.6 0.00 0.00 0.00 69 1019.2
20260505204443 17 292 3.2 3.2 0.00 0.00 0.00 72 1018.9
20260505203940 17 262 6.4 8.0 0.00 0.00 0.00 73 1019.2
20260505203437 17 276 3.2 4.8 0.00 0.00 0.00 72 1019.4
20260505202933 17 312 1.6 3.2 0.00 0.00 0.00 71 1019.4
20260505202429 17 289 6.4 8.0 0.00 0.00 0.00 71 1019.3
20260505201926 17 1 6.4 8.0 0.00 0.00 0.00 70 1019.3
20260505201423 16 264 8.0 9.7 0.00 0.00 0.00 73 1019.4
20260505200921 16 236 4.8 4.8 0.00 0.00 0.00 75 1019.6
20260505200418 16 276 8.0 11.3 0.00 0.00 0.00 74 1019.4
20260505195913 17 251 9.7 11.3 0.00 0.00 0.00 73 1019.5
20260505195411 17 295 3.2 3.2 0.00 0.00 0.00 73 1019.5
20260505194908 16 359 3.2 3.2 0.00 0.00 0.00 75 1019.4
20260505194406 16 324 3.2 3.2 0.00 0.00 0.00 77 1019.4
20260505193905 16 274 6.4 8.0 0.00 0.00 0.00 75 1019.4
20260505193404 16 302 0.0 0.0 0.00 0.00 0.00 76 1019.8
20260505192901 16 314 6.4 8.0 0.00 0.00 0.00 77 1019.6
20260505192359 16 294 1.6 3.2 0.00 0.00 0.00 77 1019.4
20260505191856 16 286 6.4 8.0 0.00 0.00 0.00 77 1019.6
20260505191355 16 326 4.8 4.8 0.00 0.00 0.00 78 1019.7
20260505190851 15 302 3.2 4.8 0.00 0.00 0.00 78 1019.5
20260505190347 15 309 4.8 4.8 0.00 0.00 0.00 79 1019.6
20260505185842 15 305 4.8 8.0 0.00 0.00 0.00 80 1019.4
20260505185339 15 316 4.8 8.0 0.00 0.00 0.00 79 1019.6
20260505184835 15 294 9.7 11.3 0.00 0.00 0.00 79 1019.4
20260505184332 15 290 4.8 8.0 0.00 0.00 0.00 80 1019.5
20260505183829 15 274 4.8 4.8 0.00 0.00 0.00 81 1019.5
20260505175713 15 256 11.3 14.5 0.00 0.00 0.00 80 1019.3
20260505175209 15 256 11.3 14.5 0.00 0.00 0.00 80 1019.3
20260505174706 14 303 8.0 11.3 0.00 0.00 0.00 80 1019.1
20260505174203 14 282 11.3 16.1 0.00 0.00 0.00 82 1019.3
20260505173659 14 255 8.0 9.7 0.00 0.00 0.00 82 1019.3
20260505173155 14 279 6.4 9.7 0.00 0.00 0.00 81 1019.0
20260505172653 14 256 9.7 11.3 0.00 0.00 0.00 81 1019.2
20260505172150 14 271 8.0 11.3 0.00 0.00 0.00 80 1019.0
20260505171649 14 247 8.0 8.0 0.00 0.00 0.00 81 1019.2
20260505171147 13 276 9.7 9.7 0.00 0.00 0.00 83 1019.3
20260505170644 13 253 9.7 11.3 0.00 0.00 0.00 83 1019.1
20260505170140 13 280 8.0 11.3 0.00 0.00 0.00 84 1019.3
20260505165635 13 285 11.3 12.9 0.00 0.00 0.00 84 1019.2
20260505165131 13 265 8.0 9.7 0.00 0.00 0.00 84 1019.2
20260505164626 13 318 3.2 3.2 0.00 0.00 0.00 85 1019.1
20260505164124 13 271 6.4 8.0 0.00 0.00 0.00 85 1019.0
20260505163623 13 256 8.0 9.7 0.00 0.00 0.00 85 1019.1
20260505163120 13 305 4.8 4.8 0.00 0.00 0.00 85 1019.2
20260505162617 13 312 8.0 8.0 0.00 0.00 0.00 84 1019.0
20260505162115 13 249 8.0 9.7 0.00 0.00 0.00 85 1018.9
20260505161612 13 273 8.0 9.7 0.00 0.00 0.00 86 1018.9
20260505161109 13 266 8.0 9.7 0.00 0.00 0.00 87 1019.1
20260505160607 13 281 11.3 12.9 0.00 0.00 0.00 86 1018.9
20260505160104 13 270 8.0 8.0 0.00 0.00 0.00 86 1018.9
20260505153044 12 289 8.0 12.9 0.00 0.00 0.00 88 1018.6
20260505152540 12 283 6.4 8.0 0.00 0.00 0.00 89 1018.9
20260505152036 12 275 8.0 11.3 0.00 0.00 0.00 89 1019.0
20260505151531 12 291 6.4 8.0 0.00 0.00 0.00 89 1019.0
20260505151029 12 277 8.0 9.7 0.00 0.00 0.00 90 1018.9
20260505150525 12 269 8.0 9.7 0.00 0.00 0.00 90 1018.8
20260505140450 11 317 3.2 3.2 0.00 0.00 0.00 93 1018.4